SCP
0 0 0 0 0 0 0 0 0 0 0 0 0 0 0 0 0 1 1 1 1 1 1 1 1 1 1 2 2 3 3 4 5 5 4 2 1 1 1 1 1 1 0 0
0 0 0 0 0 0 0 0 0 0 0 0 0 0 0 0 0 1 1 1 1 1 1 1 1 1 2 2 3 3 4 4 5 5 3 2 1 1 1 1 1 0 0 0
0 0 0 0 0 0 0 0 0 0 0 0 0 0 0 0 0 1 1 1 1 1 1 1 1 2 2 2 2 3 3 3 4 4 3 2 1 1 1 1 0 0 0 0
0 0 0 0 0 0 0 0 0 0 0 0 0 0 0 0 0 1 1 1 1 1 1 1 2 2 2 2 2 2 2 3 3 3 3 2 1 1 1 0 0 0 0 0
0 0 0 0 0 0 0 0 0 0 0 0 0 0 0 0 0 1 1 1 1 1 1 1 2 2 3 2 2 1 1 2 2 2 2 1 1 1 0 0 0 0 0 0
0 0 0 0 0 0 1 1 1 0 0 0 0 0 0 0 0 1 1 1 1 1 1 1 2 2 3 3 2 1 1 1 2 2 2 1 1 1 1 1 0 0 0 0
0 0 0 0 1 1 1 1 1 0 0 0 0 0 0 0 1 1 1 1 1 1 2 2 2 3 3 3 2 1 1 1 1 2 1 1 1 1 1 1 1 1 1 1
0 0 0 0 1 1 1 1 1 0 0 0 0 0 0 1 1 2 2 2 2 2 3 4 3 3 3 3 2 2 1 1 1 1 2 2 1 1 1 1 1 1 1 1
0 0 0 0 1 1 1 1 1 1 0 0 1 1 1 1 2 2 3 2 2 3 4 4 3 3 3 2 2 2 2 2 2 2 2 2 2 1 1 1 2 2 2 2
0 0 0 0 1 1 1 1 1 1 1 1 1 1 1 1 1 2 2 3 3 4 5 5 3 2 2 2 2 2 2 3 3 3 3 3 2 2 2 2 2 2 2 2
0 0 0 0 0 1 1 0 1 1 1 0 1 1 1 1 2 2 2 3 3 5 6 4 3 2 2 2 2 2 3 3 3 3 4 4 4 4 4 3 3 3 3 3
0 0 0 0 0 0 0 0 0 0 0 0 1 1 2 3 3 2 3 3 3 3 4 3 2 2 2 3 3 3 4 4 3 3 4 5 6 6 5 4 4 3 3 3
0 0 0 0 0 0 0 0 0 0 0 1 1 2 2 3 3 3 2 2 2 2 2 2 2 2 2 4 4 5 5 4 3 4 4 6 6 6 6 6 5 4 4 3
0 0 0 0 0 0 0 0 0 1 1 1 2 2 2 2 3 3 2 2 2 1 1 1 1 2 2 3 3 4 4 4 3 4 4 5 5 6 6 7 6 5 5 4
0 0 0 0 0 0 1 1 1 1 1 1 2 2 2 2 2 2 2 2 2 2 2 1 2 2 2 2 2 3 4 4 4 4 4 4 5 5 6 7 6 6 5 4
0 0 0 0 0 1 1 1 1 2 2 2 2 2 1 1 2 2 2 3 3 2 2 2 2 2 2 2 3 4 5 5 5 4 4 4 4 5 5 5 5 5 4 4
0 0 0 1 1 1 1 1 1 2 2 2 2 2 2 2 2 3 3 3 3 3 3 3 2 2 2 2 3 5 6 6 4 4 3 4 4 4 4 4 4 4 3 3
0 0 1 1 1 0 0 1 1 1 2 2 2 2 2 3 3 3 3 3 4 4 4 3 2 2 2 2 3 5 6 5 4 4 4 4 4 4 4 4 4 4 4 3
0 0 0 1 1 0 0 1 1 1 2 2 3 3 3 3 4 5 4 4 3 4 4 4 3 3 3 3 3 4 6 7 7 6 5 5 5 5 5 4 4 4 4 4
0 0 0 0 0 0 0 0 1 1 2 2 2 3 3 3 4 5 5 4 4 4 4 4 5 5 5 5 4 5 7 10 10 8 6 6 6 6 6 5 4 4 4 4
0 0 0 0 0 0 0 0 1 1 1 1 1 2 3 3 4 5 5 4 4 4 4 4 5 7 7 7 6 8 10 12 10 7 6 6 7 7 6 5 4 4 3 3
0 0 0 0 0 0 0 1 1 1 1 1 2 2 3 4 5 5 4 4 4 3 4 4 6 9 9 8 7 9 11 10 8 6 5 6 7 8 7 6 5 4 3 3
0 0 0 0 0 0 0 1 1 1 1 1 2 3 4 6 5 4 3 3 3 3 4 6 8 10 10 8 7 8 9 8 7 5 5 6 8 8 7 6 5 4 3 3
0 0 0 0 0 1 1 1 1 1 1 2 3 4 5 5 5 4 3 3 3 3 5 7 9 11 10 7 5 5 6 7 6 6 6 6 7 7 6 5 5 4 3 3
0 0 0 0 0 1 1 1 2 1 1 2 3 4 4 4 4 4 3 3 4 4 5 6 8 9 8 6 4 4 5 6 6 6 6 5 6 6 5 5 4 4 3 3
0 0 0 0 0 1 1 1 1 1 1 2 2 3 4 4 4 4 3 3 4 5 5 5 6 7 6 5 4 4 5 6 6 5 5 5 4 4 4 4 4 3 2 2
Wind_Speed
3 5 3 6 7 5 6 5 4 4 4 5 5 5 6 8 8 8 7 7 8 8 6 5 6 6 5 5 5 5 5 4 3 2 2 1 1 0 0 0 1 1 1 2
4 2 6 4 4 3 4 3 2 1 2 4 2 3 3 7 10 10 10 10 9 7 5 6 6 6 7 6 6 5 5 5 4 3 2 2 1 1 1 0 0 1 1 2
6 5 3 4 3 2 3 5 5 3 3 3 3 3 2 4 5 6 7 8 8 10 10 9 8 8 7 7 8 7 6 6 5 4 2 2 2 1 1 1 0 0 1 1
4 4 3 3 3 5 4 5 6 6 5 0 2 2 5 3 4 7 9 8 9 10 9 9 9 9 9 9 7 6 6 6 5 5 4 4 3 2 2 1 1 0 1 1
4 2 3 4 4 5 4 3 5 5 5 2 2 2 7 1 5 9 10 10 10 10 11 11 12 11 10 8 7 6 6 6 5 5 5 4 3 2 1 1 1 0 0 0
4 2 3 4 2 4 6 8 8 6 5 1 2 3 7 5 8 7 8 9 10 10 10 10 10 8 7 7 7 6 6 6 5 6 5 6 5 4 3 2 2 1 0 0
2 2 2 3 3 2 6 7 4 4 3 4 2 3 9 8 7 9 9 9 9 8 9 9 10 10 9 9 9 8 8 7 6 6 6 6 6 5 5 4 3 2 1 1
3 4 4 4 6 6 4 9 9 6 5 4 1 5 9 6 5 6 6 6 5 6 7 9 11 11 10 10 10 9 9 8 7 7 6 5 5 4 4 4 4 4 3 2
7 6 4 3 3 10 6 3 6 8 3 1 4 6 9 2 2 3 4 4 5 7 8 9 9 9 10 10 10 10 10 8 8 8 6 5 5 5 5 4 4 3 2 2
9 4 4 2 4 4 5 9 6 7 7 3 4 4 5 5 5 4 4 5 6 5 6 7 7 8 8 8 8 8 9 8 7 7 6 6 6 6 5 4 4 4 3 2
6 5 2 2 3 5 4 5 6 5 6 7 3 8 8 9 7 7 7 5 5 5 6 6 6 7 7 6 7 7 7 6 6 6 6 5 5 5 4 4 4 4 3 3
5 6 2 5 3 2 4 7 9 7 4 5 5 9 5 6 6 6 6 5 4 5 5 5 5 6 6 7 6 7 7 7 6 6 5 5 5 5 5 4 4 4 4 4
7 7 3 4 5 2 2 3 4 7 7 5 5 8 4 1 2 4 5 4 3 4 4 4 4 5 6 6 6 7 7 7 6 6 6 5 5 5 5 5 4 4 4 4
7 6 8 10 8 4 3 3 5 6 5 5 7 7 5 3 3 4 4 4 4 3 4 4 4 4 4 5 5 6 6 6 6 6 6 6 6 6 6 5 5 5 5 5
5 5 4 4 3 3 3 3 6 5 8 9 8 7 9 7 6 5 4 4 3 2 2 4 4 4 4 4 4 5 5 6 6 7 7 6 5 5 5 5 5 5 5 5
4 5 3 1 1 2 2 2 4 4 4 5 3 6 6 3 2 3 3 4 4 4 3 3 4 5 5 6 5 5 5 5 6 7 6 5 5 5 5 5 5 5 4 4
2 5 4 2 1 2 3 5 5 4 3 6 7 8 2 2 3 4 4 4 5 5 3 2 3 5 6 6 6 6 6 5 6 6 6 5 5 5 5 5 5 5 5 4
5 4 4 3 3 5 8 3 3 4 2 3 4 3 3 4 3 1 2 4 4 4 3 3 2 2 3 3 4 4 5 6 7 6 6 6 6 6 5 5 5 5 4 4
5 7 5 5 4 4 5 1 3 4 3 2 3 2 2 2 4 2 0 2 3 2 2 3 2 2 2 3 4 5 4 5 6 6 6 6 7 6 6 6 6 5 4 4
4 5 6 5 5 7 7 3 2 4 3 3 3 4 4 3 2 3 1 1 1 1 1 2 2 3 2 1 4 5 5 5 5 6 6 6 6 7 7 6 5 4 4 4
3 3 4 5 4 6 6 4 2 5 7 3 4 4 4 3 4 2 0 1 0 1 1 3 4 3 1 2 4 4 3 4 4 3 4 5 5 6 6 5 4 4 4 4
5 5 4 4 4 7 3 2 5 6 2 2 3 3 4 3 2 2 1 1 1 2 2 3 4 2 1 2 3 3 2 3 2 3 4 4 5 5 4 5 4 4 5 4
4 6 6 7 7 5 2 3 2 3 3 2 3 2 4 3 2 1 1 1 1 2 2 2 3 2 1 1 2 2 2 1 2 3 3 3 4 4 4 5 5 4 4 4
2 1 3 1 3 3 2 1 1 1 1 1 3 4 4 4 2 2 1 1 1 2 2 2 3 2 1 1 0 1 1 2 3 3 3 3 4 4 4 4 4 4 5 5
3 2 2 1 3 2 3 2 1 2 3 4 3 3 3 4 2 1 1 0 0 1 1 1 2 1 1 1 1 1 1 2 2 2 2 3 3 4 4 4 3 5 5 6
3 4 4 5 6 4 4 3 1 3 2 3 3 2 1 3 3 2 1 1 1 1 1 1 1 1 1 1 2 2 1 1 2 2 1 2 2 3 3 3 2 3 4 5
Wind_Direction
59 81 167 199 189 180 169 173 215 234 188 163 199 217 199 183 187 196 202 205 209 213 211 189 182 174 167 170 171 175 169 169 148 136 141 137 176 208 235 198 184 183 184 164
53 238 221 186 170 149 161 176 216 301 142 155 198 253 215 192 200 198 201 206 210 212 201 189 183 178 180 183 183 183 184 178 172 165 154 152 150 166 185 185 104 160 166 175
180 225 176 148 158 164 205 188 190 170 90 61 86 329 243 230 214 211 211 208 207 204 201 195 190 190 186 191 192 193 191 185 179 164 130 104 77 52 47 49 36 261 165 156
213 236 167 157 193 165 245 219 168 146 122 174 121 252 277 235 228 220 219 213 214 210 198 194 193 192 194 200 194 190 186 185 180 166 162 161 164 185 206 186 175 149 141 151
226 194 163 185 207 169 202 105 112 114 115 79 43 161 282 254 240 238 225 217 216 210 200 196 198 197 197 193 186 185 179 186 182 175 174 170 179 190 171 146 143 112 38 87
229 228 194 191 159 142 124 76 60 54 73 97 227 171 271 230 220 234 226 218 215 209 203 199 195 189 190 184 179 177 178 191 184 181 181 183 188 186 175 179 180 185 187 249
300 297 239 148 97 66 102 95 51 15 19 250 243 196 249 245 223 217 221 222 217 206 198 193 187 188 189 184 182 180 182 194 188 186 191 194 194 188 191 193 193 192 194 212
178 269 239 184 171 171 167 140 154 179 204 257 267 230 253 257 242 227 222 221 213 200 195 195 193 191 189 188 185 183 187 195 189 192 199 199 194 190 197 195 190 194 202 210
171 239 278 233 177 141 137 166 154 127 131 126 273 280 299 287 250 231 225 216 215 201 191 192 191 190 187 186 188 188 190 195 194 195 195 196 192 194 198 192 188 195 196 187
155 202 271 287 92 45 140 142 108 122 141 206 275 265 245 249 230 224 225 225 221 201 189 188 189 189 186 185 186 186 190 194 196 193 195 198 196 197 195 184 188 187 184 167
139 157 282 28 165 174 116 108 110 114 145 154 216 262 227 215 210 209 223 222 215 199 194 193 190 187 177 170 176 182 184 183 186 193 192 188 189 189 183 185 191 183 171 166
147 129 211 255 261 194 159 161 146 149 187 167 170 260 264 210 210 201 210 213 203 192 192 190 182 172 168 170 177 182 183 182 191 191 185 191 185 179 183 189 186 172 168 169
135 120 109 334 334 9 107 135 133 121 118 148 165 257 293 178 191 198 199 205 193 176 172 172 169 173 175 176 178 183 188 187 182 179 183 192 189 183 188 188 178 168 166 163
118 117 160 193 212 192 173 162 146 125 141 179 209 236 278 255 213 212 208 197 179 173 171 168 170 178 173 176 182 186 189 184 171 172 184 192 194 191 191 183 173 170 168 164
108 139 177 203 210 179 184 187 173 173 177 177 212 219 242 231 215 210 197 172 162 174 176 180 178 179 171 169 182 185 184 179 172 176 188 194 190 183 179 176 172 170 170 172
70 133 135 154 216 184 194 231 188 191 182 194 200 249 254 245 182 175 174 162 173 187 195 193 178 175 180 184 184 178 182 177 168 181 191 186 177 179 179 178 170 166 170 172
80 120 124 196 269 88 254 230 198 193 194 175 199 230 235 212 198 190 184 172 182 191 181 186 199 196 194 191 184 185 186 174 173 184 185 180 177 181 183 177 167 174 179 175
138 113 125 135 113 205 237 231 180 176 202 212 220 227 195 201 198 165 165 172 189 187 180 188 204 205 190 177 176 174 166 171 180 185 184 181 178 182 178 171 177 182 175 178
158 139 124 130 162 246 285 225 160 166 241 234 197 175 152 135 63 13 6 164 186 191 182 186 183 186 168 161 160 149 158 170 177 185 187 186 183 183 181 185 191 181 174 182
76 105 119 132 153 210 234 249 207 131 251 258 175 170 164 112 114 254 268 130 112 105 131 131 106 94 103 146 145 147 162 168 189 197 196 190 186 187 191 192 190 181 181 190
76 75 127 151 182 244 249 274 125 161 228 234 174 172 163 169 194 222 345 26 35 109 101 108 104 108 132 136 136 148 167 196 202 188 185 185 189 194 192 185 179 174 178 181
164 148 164 146 171 241 273 138 170 207 201 154 153 156 147 143 121 94 87 87 92 95 94 107 110 105 91 116 131 142 202 228 179 167 178 186 188 193 185 177 177 173 175 183
183 184 174 180 206 243 260 211 226 165 149 162 151 143 130 119 105 77 66 58 63 79 86 94 111 104 69 114 143 172 230 200 162 174 185 193 186 187 186 187 185 180 183 193
258 142 132 205 270 280 302 312 17 127 150 153 133 131 123 125 127 96 72 49 44 53 77 90 100 104 63 5 192 193 211 167 163 178 189 194 196 194 192 191 189 189 193 197
239 167 141 225 263 319 332 333 6 66 79 84 85 100 125 132 140 141 116 342 43 45 23 72 118 124 7 345 346 9 88 137 148 168 181 190 203 204 198 196 197 204 211 206
229 183 169 217 223 198 241 264 191 115 107 119 112 91 99 147 164 152 169 289 312 56 52 34 27 58 34 343 331 324 44 125 158 175 200 206 208 205 200 200 220 227 224 223